Regional Weather Roundup
Issued by NWS

Home | Current Version | Previous Version | Graphics & Text | Print | Product List | Glossary On
Versions: 1 2 3 4 5 6 7 8 9 10 11 12 13 14 15 16 17 18 19 20 21 22 23 24 25 26 27 28 29 30 31 32 33 34 35 36 37 38 39 40 41 42 43 44 45 46 47 48 49 50
000
ASUS43 KBIS 231810
RWRND

NORTH DAKOTA REGIONAL WEATHER ROUNDUP
NATIONAL WEATHER SERVICE BISMARCK ND
100 PM CDT SUN JUL 23 2017

NOTE: "FAIR" INDICATES FEW OR NO CLOUDS BELOW 12,000 FEET WITH NO
SIGNIFICANT WEATHER AND/OR OBSTRUCTIONS TO VISIBILITY.


NDZ001>003-009>011-017-231900-
NORTHWEST NORTH DAKOTA

CITY           SKY/WX    TMP DP  RH WIND       PRES   REMARKS
WILLISTON      SUNNY     84  52  33 VRB3      30.01F
6HR MIN TEMP:  55; 6HR MAX TEMP:  85;

MINOT          SUNNY     80  51  36 W6        30.03F
MINOT AFB      SUNNY     76  54  45 E5        30.02F
$$

NDZ018>021-031>035-040>046-231900-
SOUTHWEST NORTH DAKOTA

CITY           SKY/WX    TMP DP  RH WIND       PRES   REMARKS
BISMARCK       SUNNY     79  56  45 VRB5      30.06F
6HR MIN TEMP:  59; 6HR MAX TEMP:  79;

DICKINSON      SUNNY     82  49  31 CALM      30.05F
GARRISON         N/A     79  56  45 CALM      30.04F
6HR MIN TEMP:  51; 6HR MAX TEMP:  79;

HETTINGER ARPT SUNNY     84  48  28 E3        30.08F
$$

NDZ004>008-012>016-024-026-027-054-231900-
NORTHEAST NORTH DAKOTA

CITY           SKY/WX    TMP DP  RH WIND       PRES   REMARKS
GRAND FORKS    CLOUDY    71  62  73 NW8       30.02R
GRND FRKS AFB  CLOUDY    70  61  71 E6        30.03S
DEVILS LAKE    SUNNY     72  55  55 NW5       30.06S
$$

NDZ022-023-025-028>030-036>039-047>053-231900-
SOUTHEAST NORTH DAKOTA

CITY           SKY/WX    TMP DP  RH WIND       PRES   REMARKS
FARGO          CLOUDY    70  61  73 NW9       30.02S
6HR MIN TEMP:  63; 6HR MAX TEMP:  71;

JAMESTOWN      MOSUNNY   75  57  53 N10       30.04F
$$





USA.gov is the U.S. government's official web portal to all federal, state and local government web resources and services.